Skip Page Navigation
NASA JPL Caltech
NASA Logo - Jet Propulsion Laboratory + View the NASA Portal
+ Center for Near-Earth Object Studies
JPL Home Earth Solar System Stars & Galaxies Technology
JPL Solar System Dynamics
BODIES ORBITS EPHEMERIDES TOOLS PHYSICAL DATA DISCOVERY FAQ SITE MAP
JPL Small-Body Database Browser
Search: [ help ]  
13123 Tyson (1994 KA)
Classification: Main-belt Asteroid          SPK-ID: 2013123
Ephemeris | Orbit Diagram | Orbital Elements | Mission Design | Physical Parameters | Discovery Circumstances ]

[ show orbit diagram ]
Orbital Elements at Epoch 2459000.5 (2020-May-31.0) TDB
Reference: JPL 32 (heliocentric ecliptic J2000)
 Element Value Uncertainty (1-sigma)   Units 
e .2714807451278159 4.2886e-08  
a 2.359880096018732 1.027e-08 au
q 1.719218089139265 1.0322e-07 au
i 23.28677569838166 4.3873e-06 deg
node 68.80178418566447 1.1496e-05 deg
peri 251.8968868316562 1.4328e-05 deg
M 350.7201629485295 1.2455e-05 deg
tp 2459034.632742342003
(2020-Jul-04.13274234)
4.5937e-05 TDB
period 1324.138255334325
3.63
8.6435e-06
2.366e-08
d
yr
n .2718749334140379 1.7747e-09 deg/d
Q 3.000542102898199 1.3058e-08 au
  Orbit Determination Parameters
   # obs. used (total)      1926  
   data-arc span      24595 days (67.34 yr)  
   first obs. used      1953-02-14  
   last obs. used      2020-06-17  
   planetary ephem.      DE431  
   SB-pert. ephem.      SB431-N16  
   condition code      0  
   norm. resid. RMS      .40077  
   source      ORB  
   producer      Otto Matic  
   solution date      2020-Jun-23 17:33:48  

Additional Information
 Earth MOID = .833832 au 
 Jupiter MOID = 2.53963 au 
 T_jup = 3.396 
[ show covariance matrix ]

Ephemeris | Orbit Diagram | Orbital Elements | Mission Design | Physical Parameters | Discovery Circumstances ]

Physical Parameter Table
Parameter Symbol Value Units Sigma Reference Notes
absolute magnitude H 12.5   n/a MPO473945  
diameter diameter 10.875 km 0.609 urn:nasa:pds:neowise_diameters_albedos::2.0[mainbelt] (http://adsabs.harvard.edu/abs/2012ApJ...759L...8M)  
rotation period rot_per 3.3303 h n/a LCDB (Rev. 2019-August); Warner et al., 2009 Published Reference List:
[Krotz, J.; Albers, K.; Carbo, L.; Kragh, K.; et al. (2010) Minor Planet Bull. 37, 99-101.]
[Pravec, P.; Scheirich, P.; Kusnirak, P.; Hornoch, K.; et al. (2016) Icarus 267, 267-295.]
geometric albedo albedo 0.197   0.025 urn:nasa:pds:neowise_diameters_albedos::2.0[mainbelt] (http://adsabs.harvard.edu/abs/2012ApJ...759L...8M)  

13123 Tyson           Discovered 1994 May 16 by C. S. Shoemaker and D. H. Levy at Palomar.
Neil deGrasse Tyson (b. 1958) is the youngest-ever director of New York's Hayden Planetarium. He spearheaded the complete redesign of the planetarium that reopened in 2000. He also teaches astronomy at Princeton University.
NOTE: some special characters may not display properly (any characters within {} are an attempt to place the proper accent above a character)
Reference: 20001111/MPCPages.arcLast Updated: 2013-03-29

Alternate Designations
 1994 KA = 1995 YO2 
Ephemeris | Orbit Diagram | Orbital Elements | Mission Design | Physical Parameters | Discovery Circumstances ]
ABOUT SSD CREDITS/AWARDS PRIVACY/COPYRIGHT GLOSSARY LINKS
FirstGov 2020-Jul-15 02:15 UT
(server date/time)  
NASA Home Page
Site Manager:   Ryan S. Park
Webmaster  Alan B. Chamberlin